This demonstration page uses our WeatherBlox Daily Observations layout. Learn more.

Left ArrowRight Arrow

39.29038, -76.61219

Hourly Observations for August 27, 2015

Temp ( °F °C ) Dew Point ( °F °C ) Humidity (%) Winds ( mph kmh ) Pressure ( in mb ) Visibility ( mi km ) Precip ( " mm )
12:54 am 00:54 undefined 70 21.1 54 12.2 57 57 undefined N/A 30.08 1019 N/A 0.00 0.00
1:54 am 01:54 undefined 68 20 55 12.8 63 63 undefined N/A 30.08 1019 N/A 0.00 0.00
2:54 am 02:54 undefined 68 20 55 12.8 63 63 undefined N/A 30.06 1018 N/A 0.00 0.00
3:54 am 03:54 undefined 67 19.4 55 12.8 66 66 undefined N/A 30.07 1018 N/A 0.00 0.00
4:54 am 04:54 undefined 66 18.9 54 12.2 65 65 undefined N/A 30.07 1018 N/A 0.00 0.00
5:54 am 05:54 undefined 66 18.9 54 12.2 65 65 undefined N/A 30.07 1018 N/A 0.00 0.00
6:54 am 06:54 undefined 66 18.9 54 12.2 65 65 undefined N/A 30.10 1019 N/A 0.00 0.00
7:54 am 07:54 undefined 68 20 53 11.7 59 59 undefined N/A 30.11 1020 N/A 0.00 0.00
8:54 am 08:54 undefined 70 21.1 55 12.8 59 59 undefined N/A 30.12 1020 N/A 0.00 0.00
9:54 am 09:54 undefined 71 21.7 55 12.8 57 57 undefined N/A 30.12 1020 N/A 0.00 0.00
10:54 am 10:54 undefined 73 22.8 54 12.2 51 51 undefined N/A 30.14 1021 N/A 0.00 0.00
11:54 am 11:54 undefined 75 23.9 55 12.8 50 50 undefined N/A 30.12 1020 N/A 0.00 0.00
12:54 pm 12:54 undefined 76 24.4 52 11.1 43 43 undefined N/A 30.11 1020 N/A 0.00 0.00
1:54 pm 13:54 undefined 77 25 52 11.1 42 42 undefined N/A 30.11 1020 N/A 0.00 0.00
2:54 pm 14:54 undefined 79 26.1 53 11.7 41 41 undefined N/A 30.09 1019 N/A 0.00 0.00
3:54 pm 15:54 undefined 77 25 54 12.2 45 45 undefined N/A 30.08 1019 N/A 0.00 0.00
4:54 pm 16:54 undefined 78 25.6 54 12.2 43 43 undefined N/A 30.08 1019 N/A 0.00 0.00
6:54 pm 18:54 undefined 76 24.4 55 12.8 48 48 undefined N/A 30.09 1019 N/A 0.00 0.00
7:54 pm 19:54 undefined 75 23.9 56 13.3 52 52 undefined N/A 30.10 1019 N/A 0.00 0.00
8:54 pm 20:54 undefined 74 23.3 56 13.3 54 54 undefined N/A 30.13 1020 N/A 0.00 0.00
9:54 pm 21:54 undefined 73 22.8 56 13.3 55 55 undefined N/A 30.14 1021 N/A 0.00 0.00
10:54 pm 22:54 undefined 72 22.2 57 13.9 59 59 undefined N/A 30.15 1021 N/A 0.00 0.00
11:54 pm 23:54 undefined 72 22.2 56 13.3 57 57 undefined N/A 30.16 1021 N/A 0.00 0.00

Powered by AerisWeather